Weather History for Muncie, IN

Change the Weather History Date:

Monday, March 10, 2014

  Actual Average Record
Temperature  
Mean Temperature 8 °C 3 °C  
Max Temperature 14 °C 8 °C 22 °C (2009)
Min Temperature 2 °C -2 °C -20 °C (1984)
Degree Days  
Heating Degree Days 18 28  
Month to date heating degree days 373 294  
Since 1 July heating degree days 5283 4677  
Cooling Degree Days 0 0  
Month to date cooling degree days 0 0  
Year to date cooling degree days 0 0  
Moisture  
Dew Point 1 °C    
Average Humidity 62    
Maximum Humidity 76    
Minimum Humidity 47    
Precipitation  
Precipitation 0.00 mm 2.03 mm 3.71 mm (1990)
Month to date precipitation 0.09 0.87  
Year to date precipitation 3.05 5.41  
Sea Level Pressure  
Sea Level Pressure 1009 hPa    
Wind  
Wind Speed 19 km/h (SW)    
Max Wind Speed 35 km/h    
Max Gust Speed 43 km/h    
Visibility 13 kilometers    
Events      
T = Trace of Precipitation, MM = Missing Value Source: NWS Daily Summary

Daily Weather History Graph

Daily Weather History Graph

Search for Another Location

Airport:

Trip Planner

Search our weather history database for the weather conditions in past years. The results will help you decide how hot, cold, wet, or windy it might be!

Date:

Astronomy

Mar. 10, 2014 Rise Set
Actual Time 8:01 AM EDT 7:43 PM EDT
Civil Twilight 7:34 AM EDT 8:10 PM EDT
Nautical Twilight 7:02 AM EDT 8:41 PM EDT
Astronomical Twilight 6:30 AM EDT 9:13 PM EDT
Moon 2:25 PM EDT (3/10) 4:12 AM EDT (3/10)
Length of Visible Light 12h 36m
Length of Day
11h 42m
Waxing Gibbous, 70% of the Moon is Illuminated
Mar 10
Waxing Gibbous
Mar 16
Full
Mar 23
Last Quarter
Mar 30
New
Apr 7
First Quarter

Hourly Weather History & Observations

Time (EDT) Temp. Windchill Dew Point Humidity Pressure Visibility Wind Dir Wind Speed Gust Speed Precip Events Conditions
12:53 AM 2.8 °C -2.0 °C -1.7 °C 73% 1014.0 hPa 12.9 km SW 22.2 km/h / 6.2 m/s 33.3 km/h / 9.3 m/s N/A   Clear
1:53 AM 2.8 °C -1.2 °C -1.7 °C 73% 1013.4 hPa 11.3 km SW 16.7 km/h / 4.6 m/s - N/A   Clear
2:53 AM 2.8 °C -1.2 °C -1.7 °C 73% 1012.8 hPa 11.3 km SW 16.7 km/h / 4.6 m/s - N/A   Clear
3:53 AM 2.2 °C -2.0 °C -1.7 °C 76% 1011.7 hPa 11.3 km SW 16.7 km/h / 4.6 m/s - N/A   Clear
4:53 AM 2.8 °C -1.7 °C -1.7 °C 73% 1010.9 hPa 11.3 km SW 20.4 km/h / 5.7 m/s - N/A   Clear
5:53 AM 3.3 °C -1.1 °C -1.1 °C 73% 1010.3 hPa 12.9 km SW 20.4 km/h / 5.7 m/s - N/A   Partly Cloudy
6:53 AM 3.3 °C -0.9 °C -1.1 °C 73% 1010.3 hPa 12.9 km SW 18.5 km/h / 5.1 m/s 31.5 km/h / 8.7 m/s N/A   Clear
7:53 AM 3.3 °C -0.3 °C -1.1 °C 73% 1010.2 hPa 12.9 km SW 14.8 km/h / 4.1 m/s - N/A   Clear
8:53 AM 3.3 °C -1.3 °C -1.1 °C 73% 1010.2 hPa 9.7 km SW 22.2 km/h / 6.2 m/s 29.6 km/h / 8.2 m/s N/A   Haze
9:53 AM 3.9 °C 0.2 °C 0.0 °C 76% 1009.6 hPa 9.7 km SW 16.7 km/h / 4.6 m/s - N/A   Haze
10:53 AM 5.6 °C 2.0 °C 0.6 °C 70% 1010.1 hPa 8.0 km WSW 18.5 km/h / 5.1 m/s 35.2 km/h / 9.8 m/s N/A   Haze
11:53 AM 7.2 °C 3.8 °C 1.7 °C 68% 1010.1 hPa 9.7 km WSW 20.4 km/h / 5.7 m/s - N/A   Haze
12:53 PM 10.0 °C - 2.2 °C 59% 1009.0 hPa 11.3 km WSW 31.5 km/h / 8.7 m/s 42.6 km/h / 11.8 m/s N/A   Scattered Clouds
1:53 PM 11.7 °C - 2.8 °C 55% 1008.4 hPa 12.9 km SW 25.9 km/h / 7.2 m/s 35.2 km/h / 9.8 m/s N/A   Clear
2:53 PM 12.8 °C - 3.3 °C 53% 1007.2 hPa 11.3 km SW 29.6 km/h / 8.2 m/s 40.7 km/h / 11.3 m/s N/A   Clear
3:53 PM 13.9 °C - 3.9 °C 51% 1006.2 hPa 11.3 km WSW 29.6 km/h / 8.2 m/s 40.7 km/h / 11.3 m/s N/A   Clear
4:53 PM 13.9 °C - 3.3 °C 49% 1005.9 hPa 12.9 km SW 29.6 km/h / 8.2 m/s 40.7 km/h / 11.3 m/s N/A   Clear
5:53 PM 13.9 °C - 3.9 °C 51% 1005.6 hPa 14.5 km WSW 18.5 km/h / 5.1 m/s 33.3 km/h / 9.3 m/s N/A   Clear
6:53 PM 13.3 °C - 3.3 °C 51% 1005.6 hPa 16.1 km SW 16.7 km/h / 4.6 m/s - N/A   Clear
7:53 PM 12.2 °C - 3.3 °C 55% 1006.3 hPa 16.1 km WSW 11.1 km/h / 3.1 m/s - N/A   Clear
8:53 PM 11.1 °C - 3.3 °C 59% 1006.8 hPa 16.1 km WSW 7.4 km/h / 2.1 m/s - N/A   Clear
9:53 PM 11.1 °C - 3.9 °C 61% 1006.9 hPa 16.1 km WSW 14.8 km/h / 4.1 m/s - N/A   Clear
10:53 PM 10.6 °C - 3.9 °C 63% 1006.9 hPa 16.1 km SW 13.0 km/h / 3.6 m/s - N/A   Clear
11:53 PM 10.0 °C - 3.9 °C 66% 1006.4 hPa 14.5 km SW 11.1 km/h / 3.1 m/s - N/A   Clear